Nantucket, MA

2:11 PM EST on December 15, 2017 (GMT -0500)
Nantucket Memorial

Weather History for KACK - March, 2013

Change the Weather History Date:

Thursday, March 28, 2013

  Actual Average Record
Temperature  
Mean Temperature 44 °F -  
Max Temperature 50 °F 43 °F 59 °F (1949)
Min Temperature 39 °F 29 °F 20 °F (1966)
Degree Days  
Heating Degree Days 22    
Moisture  
Dew Point 35 °F    
Average Humidity 78    
Maximum Humidity 93    
Minimum Humidity 51    
Precipitation  
Precipitation 0.04 in - - ()
Sea Level Pressure  
Sea Level Pressure 29.88 in    
Wind  
Wind Speed 13 mph (NNW)    
Max Wind Speed 24 mph    
Max Gust Speed 29 mph    
Visibility 10 miles    
Events Rain    
Averages and records for this station are not official NWS values.
T = Trace of Precipitation, MM = Missing Value Source: NWS Daily Summary

Daily Weather History Graph

Daily Weather History Graph

Search for Another Location

Airport or City:

Trip Planner

Search our weather history database for the weather conditions in past years. The results will help you decide how hot, cold, wet, or windy it might be!

Date:

Astronomy

Mar. 28, 2013 Rise Set
Actual Time 6:29 AM EDT 7:01 PM EDT
Civil Twilight 6:02 AM EDT 7:29 PM EDT
Nautical Twilight 5:29 AM EDT 8:01 PM EDT
Astronomical Twilight 4:55 AM EDT 8:35 PM EDT
Moon 8:50 PM EDT (3/28) 6:54 AM EDT (3/28)
Length of Visible Light 13h 26m
Length of Day
12h 31m
Full, 98% of the Moon is Illuminated
Mar 28
Full
Apr 3
Last Quarter
Apr 10
New
Apr 18
First Quarter
Apr 25
Full

Hourly Weather History & Observations

Time (EDT) Temp. Windchill Dew Point Humidity Pressure Visibility Wind Dir Wind Speed Gust Speed Precip Events Conditions
12:21 AM 41.0 °F 36.4 °F 35.6 °F 81% 29.83 in 10.0 mi NNW 6.9 mph - N/A   Mostly Cloudy
12:50 AM 41.0 °F 34.3 °F 35.6 °F 81% 29.83 in 10.0 mi NNW 11.5 mph - N/A   Overcast
12:53 AM 41.0 °F 34.7 °F 36.0 °F 82% 29.83 in 10.0 mi NNW 10.4 mph - N/A   Overcast
1:53 AM 39.9 °F 31.4 °F 35.1 °F 83% 29.82 in 10.0 mi NNW 16.1 mph - 0.00 in   Overcast
2:53 AM 41.0 °F 32.8 °F 35.1 °F 79% 29.82 in 10.0 mi NW 16.1 mph 21.9 mph 0.00 in Rain Light Rain
3:04 AM 39.2 °F 30.5 °F 35.6 °F 87% 29.82 in 7.0 mi NNW 16.1 mph - 0.00 in Rain Light Rain
3:15 AM 39.2 °F 30.5 °F 35.6 °F 87% 29.82 in 9.0 mi NNW 16.1 mph 24.2 mph 0.01 in Rain Light Rain
3:28 AM 39.2 °F 32.0 °F 35.6 °F 87% 29.82 in 10.0 mi NNW 11.5 mph - 0.01 in Rain Light Rain
3:53 AM 39.9 °F 32.5 °F 36.0 °F 86% 29.82 in 10.0 mi NNW 12.7 mph - 0.01 in Rain Light Rain
4:19 AM 39.2 °F 31.6 °F 35.6 °F 87% 29.82 in 10.0 mi NNW 12.7 mph 21.9 mph 0.00 in Rain Light Rain
4:45 AM 39.2 °F 30.8 °F 35.6 °F 87% 29.82 in 10.0 mi NNW 15.0 mph 21.9 mph 0.00 in   Overcast
4:53 AM 39.0 °F 31.4 °F 36.0 °F 89% 29.82 in 9.0 mi NNW 12.7 mph 21.9 mph 0.00 in Rain Light Rain
5:03 AM 39.2 °F 31.2 °F 37.4 °F 93% 29.82 in 9.0 mi NNW 13.8 mph - 0.00 in Rain Light Rain
5:11 AM 39.2 °F 31.6 °F 35.6 °F 87% 29.82 in 10.0 mi NNW 12.7 mph - 0.00 in   Overcast
5:53 AM 39.0 °F 31.0 °F 37.0 °F 93% 29.83 in 10.0 mi NNW 13.8 mph - 0.00 in Rain Light Rain
6:29 AM 39.2 °F 30.8 °F 35.6 °F 87% 29.83 in 10.0 mi NNW 15.0 mph - 0.00 in Rain Light Rain
6:36 AM 39.2 °F 30.8 °F 35.6 °F 87% 29.84 in 10.0 mi NNW 15.0 mph - 0.00 in Rain Light Rain
6:53 AM 39.0 °F 31.0 °F 36.0 °F 89% 29.84 in 10.0 mi NNW 13.8 mph - 0.00 in Rain Light Rain
7:00 AM 39.2 °F 31.6 °F 35.6 °F 87% 29.84 in 10.0 mi NNW 12.7 mph - 0.00 in Rain Light Rain
7:17 AM 39.2 °F 30.8 °F 37.4 °F 93% 29.85 in 10.0 mi NNW 15.0 mph - 0.01 in Rain Light Rain
7:53 AM 39.9 °F 32.1 °F 37.0 °F 89% 29.86 in 9.0 mi NNW 13.8 mph - 0.01 in Rain Light Rain
8:00 AM 39.2 °F 31.6 °F 37.4 °F 93% 29.86 in 10.0 mi NNW 12.7 mph - 0.00 in Rain Light Rain
8:53 AM 39.9 °F 32.1 °F 37.0 °F 89% 29.87 in 10.0 mi North 13.8 mph - 0.01 in Rain Light Rain
9:53 AM 41.0 °F 33.9 °F 37.9 °F 89% 29.88 in 9.0 mi North 12.7 mph - 0.01 in Rain Light Rain
10:53 AM 42.1 °F 34.5 °F 37.9 °F 85% 29.90 in 10.0 mi North 15.0 mph - 0.00 in Rain Light Rain
11:25 AM 44.6 °F 38.8 °F 41.0 °F 87% 29.90 in 10.0 mi North 11.5 mph - N/A   Overcast
11:53 AM 46.0 °F 37.6 °F 37.0 °F 71% 29.90 in 10.0 mi NNE 24.2 mph - N/A   Overcast
12:53 PM 48.0 °F - 37.0 °F 66% 29.91 in 10.0 mi NNE 21.9 mph - N/A   Mostly Cloudy
1:53 PM 48.0 °F - 32.0 °F 54% 29.91 in 10.0 mi NNE 21.9 mph - N/A   Clear
2:53 PM 48.0 °F - 33.1 °F 56% 29.91 in 10.0 mi North 21.9 mph 27.6 mph N/A   Clear
3:40 PM 46.4 °F 38.7 °F 32.0 °F 57% 29.92 in 10.0 mi NNE 20.7 mph 28.8 mph N/A   Mostly Cloudy
3:53 PM 48.0 °F - 30.9 °F 52% 29.92 in 10.0 mi NNE 20.7 mph - N/A   Overcast
4:53 PM 46.0 °F 39.3 °F 28.9 °F 51% 29.94 in 10.0 mi North 16.1 mph - N/A   Overcast
5:53 PM 45.0 °F 40.1 °F 28.9 °F 53% 29.95 in 10.0 mi North 9.2 mph - N/A   Overcast
6:53 PM 43.0 °F 37.2 °F 30.9 °F 62% 29.97 in 10.0 mi NNW 10.4 mph - N/A   Overcast
7:53 PM 43.0 °F 38.8 °F 32.0 °F 65% 29.99 in 10.0 mi NNW 6.9 mph - N/A   Overcast
8:53 PM 43.0 °F 38.8 °F 32.0 °F 65% 30.01 in 10.0 mi NW 6.9 mph - N/A   Overcast
9:53 PM 43.0 °F 38.2 °F 33.1 °F 68% 30.02 in 10.0 mi NW 8.1 mph - N/A   Overcast
10:53 PM 42.1 °F 37.7 °F 33.1 °F 70% 30.02 in 10.0 mi WNW 6.9 mph - N/A   Overcast
11:53 PM 41.0 °F 36.4 °F 33.1 °F 73% 30.02 in 10.0 mi WNW 6.9 mph - N/A   Overcast